Weather History for Billings, MT

Change the Weather History Date:

Monday, July 2, 2012

  Actual Average Record
Temperature  
Mean Temperature 73 °F 70 °F  
Max Temperature 88 °F 83 °F 100 °F (1936)
Min Temperature 58 °F 56 °F 42 °F (1955)
Degree Days  
Heating Degree Days 0 1  
Month to date heating degree days 0 2  
Since 1 June heating degree days 35 98  
Since 1 July heating degree days 0 2  
Cooling Degree Days 8 6  
Month to date cooling degree days 23 12  
Year to date cooling degree days 210 114  
Since 1 June cooling degree days 176 97  
Growing Degree Days 25 (Base 50)    
Moisture  
Dew Point 49 °F    
Average Humidity 49    
Maximum Humidity 72    
Minimum Humidity 26    
Precipitation  
Precipitation 0.00 in 0.06 in 1.86 in (1958)
Month to date precipitation 0.00 0.11  
Year to date precipitation 4.39 8.09  
Snow  
Snow 0.00 in 0.00 in T in (1994)
Month to date snowfall 0.0 0.0  
Since 1 June snowfall T 0.0  
Since 1 July snowfall 0.0 0.0  
Snow Depth 0.00 in    
Sea Level Pressure  
Sea Level Pressure 29.82 in    
Wind  
Wind Speed 9 mph (ENE)    
Max Wind Speed 20 mph    
Max Gust Speed 26 mph    
Visibility 10 miles    
Events      
T = Trace of Precipitation, MM = Missing Value Source: NWS Daily Summary

Daily Weather History Graph

Daily Weather History Graph

Search for Another Location

Airport:

Trip Planner

Search our weather history database for the weather conditions in past years. The results will help you decide how hot, cold, wet, or windy it might be!

Date:

Astronomy

Jul. 02, 2012 Rise Set
Actual Time 5:29 AM MDT 9:07 PM MDT
Civil Twilight 4:51 AM MDT 9:45 PM MDT
Nautical Twilight 4:00 AM MDT 10:35 PM MDT
Astronomical Twilight 2:51 AM MDT 11:43 PM MDT
Moon 8:11 PM MDT (7/2) 4:20 AM MDT (7/2)
Length of Visible Light 16h 54m
Length of Day
15h 38m
Waxing Gibbous, 98% of the Moon is Illuminated
Jul 2
Waxing Gibbous
Jul 3
Full
Jul 10
Last Quarter
Jul 18
New
Jul 26
First Quarter

Hourly Weather History & Observations

Time (MDT) Temp. Dew Point Humidity Pressure Visibility Wind Dir Wind Speed Gust Speed Precip Events Conditions
12:53 AM 64.9 °F 48.0 °F 54% 29.83 in 10.0 mi North 5.8 mph - N/A   Clear
1:53 AM 64.9 °F 48.0 °F 54% 29.82 in 10.0 mi WSW 6.9 mph - N/A   Clear
2:53 AM 64.0 °F 48.9 °F 58% 29.81 in 10.0 mi WSW 8.1 mph - N/A   Clear
3:53 AM 62.1 °F 48.9 °F 62% 29.83 in 10.0 mi South 4.6 mph - N/A   Clear
4:53 AM 57.9 °F 48.0 °F 70% 29.87 in 10.0 mi West 5.8 mph - N/A   Clear
5:53 AM 63.0 °F 48.9 °F 60% 29.88 in 10.0 mi SW 5.8 mph - N/A   Partly Cloudy
6:53 AM 64.0 °F 50.0 °F 60% 29.90 in 10.0 mi SSW 4.6 mph - N/A   Clear
7:53 AM 69.1 °F 51.1 °F 53% 29.92 in 10.0 mi Calm Calm - N/A   Partly Cloudy
8:53 AM 68.0 °F 52.0 °F 56% 29.94 in 10.0 mi South 5.8 mph - N/A   Partly Cloudy
9:53 AM 73.9 °F 48.9 °F 41% 29.91 in 10.0 mi Variable 6.9 mph - N/A   Partly Cloudy
10:53 AM 75.9 °F 51.1 °F 42% 29.92 in 10.0 mi SSE 8.1 mph - N/A   Clear
11:53 AM 78.1 °F 50.0 °F 37% 29.89 in 10.0 mi East 10.4 mph - N/A   Partly Cloudy
12:53 PM 80.1 °F 48.9 °F 34% 29.88 in 10.0 mi NE 11.5 mph 18.4 mph N/A   Partly Cloudy
1:53 PM 82.9 °F 48.9 °F 31% 29.85 in 10.0 mi NE 8.1 mph 17.3 mph N/A   Partly Cloudy
2:53 PM 84.0 °F 48.0 °F 28% 29.82 in 10.0 mi ENE 16.1 mph 20.7 mph N/A   Partly Cloudy
3:53 PM 86.0 °F 48.9 °F 28% 29.79 in 10.0 mi ENE 13.8 mph 18.4 mph N/A   Partly Cloudy
4:53 PM 87.1 °F 48.9 °F 27% 29.78 in 10.0 mi NE 17.3 mph 23.0 mph N/A   Partly Cloudy
5:53 PM 88.0 °F 48.9 °F 26% 29.75 in 10.0 mi NE 17.3 mph - N/A   Partly Cloudy
6:53 PM 87.1 °F 48.9 °F 27% 29.74 in 10.0 mi NE 17.3 mph 25.3 mph N/A   Scattered Clouds
7:53 PM 84.9 °F 51.1 °F 31% 29.73 in 10.0 mi ENE 17.3 mph - N/A   Scattered Clouds
8:53 PM 82.0 °F 50.0 °F 33% 29.74 in 10.0 mi ENE 16.1 mph - N/A   Scattered Clouds
9:53 PM 78.1 °F 48.9 °F 36% 29.74 in 10.0 mi NE 10.4 mph - N/A   Partly Cloudy
10:53 PM 75.9 °F 48.9 °F 38% 29.73 in 10.0 mi NNE 8.1 mph - N/A   Clear
11:53 PM 71.1 °F 48.0 °F 44% 29.72 in 10.0 mi Calm Calm - N/A   Clear